Alma, MI

9:24 PM EDT on July 22, 2019 (GMT -0400)
Gratiot Community

Weather History for KAMN - May, 2019

Change the Weather History Date:

Tuesday, May 28, 2019

  Actual Average Record
Temperature  
Mean Temperature 58 °F -  
Max Temperature 60 °F 73 °F 92 °F (1977)
Min Temperature 55 °F 49 °F 30 °F (2008)
Degree Days  
Heating Degree Days 8    
Growing Degree Days 8 (Base 50)    
Moisture  
Dew Point 54 °F    
Average Humidity 90    
Maximum Humidity 94    
Minimum Humidity 84    
Precipitation  
Precipitation 0.00 in - - ()
Sea Level Pressure  
Sea Level Pressure 29.74 in    
Wind  
Wind Speed 7 mph (NE)    
Max Wind Speed 12 mph    
Max Gust Speed -    
Visibility 8 miles    
Events Rain    
Averages and records for this station are not official NWS values.
T = Trace of Precipitation, MM = Missing Value Source: NWS Daily Summary

Daily Weather History Graph

Daily Weather History Graph

Search for Another Location

Airport or City:

Astronomy

May. 28, 2019 Rise Set
Actual Time 6:03 AM EDT 9:08 PM EDT
Civil Twilight 5:29 AM EDT 9:43 PM EDT
Nautical Twilight 4:45 AM EDT 10:27 PM EDT
Astronomical Twilight 3:53 AM EDT 11:20 PM EDT
Moon 3:28 AM EDT (5/28) 3:05 PM EDT (5/28)
Length of Visible Light 16h 13m
Length of Day
15h 05m
Waning Crescent, 32% of the Moon is Illuminated
May 28
Waning Crescent
Jun 3
New
Jun 10
First Quarter
Jun 17
Full
Jun 25
Last Quarter

Hourly Weather History & Observations

Time (EDT) Temp. Dew Point Humidity Pressure Visibility Wind Dir Wind Speed Gust Speed Precip Events Conditions
12:15 AM 56.7 °F 53.4 °F 89% 29.76 in 7.0 mi East 11.5 mph - N/A Rain Light Rain
12:16 AM 56.7 °F 53.6 °F 89% 29.76 in 7.0 mi East 10.4 mph - N/A Rain Light Rain
12:35 AM 56.7 °F 53.6 °F 89% 29.76 in 10.0 mi East 11.5 mph - N/A   Overcast
12:36 AM 56.7 °F 53.6 °F 89% 29.76 in 10.0 mi East 11.5 mph - N/A   Overcast
12:55 AM 56.7 °F 53.6 °F 89% 29.75 in 10.0 mi East 8.1 mph - N/A   Overcast
12:56 AM 56.7 °F 53.6 °F 89% 29.75 in 10.0 mi East 8.1 mph - N/A   Overcast
1:15 AM 56.7 °F 53.8 °F 90% 29.73 in 10.0 mi East 9.2 mph - N/A   Overcast
1:35 AM 56.8 °F 53.8 °F 89% 29.72 in 10.0 mi East 4.6 mph - N/A   Overcast
1:55 AM 56.8 °F 53.8 °F 89% 29.70 in 7.0 mi East 4.6 mph - N/A Rain Light Rain
2:15 AM 56.8 °F 54.1 °F 91% 29.70 in 10.0 mi NE 5.8 mph - N/A   Overcast
2:35 AM 56.7 °F 54.1 °F 91% 29.69 in 10.0 mi East 5.8 mph - N/A   Overcast
2:36 AM 56.7 °F 54.1 °F 91% 29.69 in 10.0 mi East 5.8 mph - N/A   Overcast
2:55 AM 56.8 °F 54.5 °F 92% 29.69 in 10.0 mi ENE 5.8 mph - N/A   Overcast
2:56 AM 56.8 °F 54.5 °F 92% 29.69 in 10.0 mi ENE 5.8 mph - N/A   Overcast
3:15 AM 56.8 °F 54.5 °F 92% 29.68 in 10.0 mi ENE 6.9 mph - N/A   Overcast
3:16 AM 56.8 °F 54.5 °F 92% 29.68 in 10.0 mi East 6.9 mph - N/A   Overcast
3:35 AM 56.8 °F 54.5 °F 92% 29.67 in 10.0 mi ENE 6.9 mph - N/A   Overcast
3:36 AM 56.8 °F 54.5 °F 92% 29.67 in 10.0 mi ENE 6.9 mph - N/A   Overcast
3:55 AM 56.8 °F 54.7 °F 92% 29.66 in 10.0 mi East 4.6 mph - N/A   Overcast
3:56 AM 56.8 °F 54.7 °F 92% 29.66 in 10.0 mi East 4.6 mph - N/A   Overcast
4:15 AM 57.0 °F 54.9 °F 92% 29.66 in 10.0 mi ENE 4.6 mph - N/A Rain Rain
4:35 AM 57.2 °F 54.9 °F 92% 29.66 in 10.0 mi East 4.6 mph - N/A   Overcast
4:36 AM 57.2 °F 54.9 °F 92% 29.66 in 10.0 mi East 4.6 mph - N/A   Overcast
4:55 AM 56.8 °F 54.7 °F 92% 29.66 in 7.0 mi NE 3.5 mph - N/A Rain Light Rain
5:15 AM 57.0 °F 54.9 °F 92% 29.67 in 7.0 mi Calm Calm - N/A   Drizzle
5:35 AM 57.0 °F 54.9 °F 92% 29.67 in 7.0 mi NE 4.6 mph - N/A   Overcast
5:55 AM 56.8 °F 54.9 °F 93% 29.66 in 5.0 mi NE 4.6 mph - N/A Rain Light Rain
5:56 AM 56.8 °F 54.9 °F 93% 29.66 in 5.0 mi NNE 4.6 mph - N/A   Light Drizzle
6:15 AM 56.7 °F 54.9 °F 94% 29.67 in 3.0 mi NNE 4.6 mph - N/A   Overcast
6:16 AM 56.7 °F 54.9 °F 94% 29.67 in 3.0 mi NNE 4.6 mph - N/A   Overcast
6:35 AM 56.5 °F 54.7 °F 94% 29.67 in 2.0 mi NE 6.9 mph - N/A   Overcast
6:55 AM 56.5 °F 54.9 °F 94% 29.67 in 1.8 mi NE 5.8 mph - N/A   Light Drizzle
6:56 AM 56.7 °F 54.9 °F 94% 29.67 in 1.8 mi NE 5.8 mph - N/A   Light Drizzle
7:15 AM 55.8 °F 54.0 °F 94% 29.68 in 1.8 mi NNE 8.1 mph - N/A Rain Rain
7:16 AM 55.8 °F 54.0 °F 94% 29.68 in 1.8 mi NNE 8.1 mph - N/A Rain Rain
7:35 AM 55.4 °F 53.6 °F 94% 29.69 in 2.0 mi NE 6.9 mph - N/A   Light Drizzle
7:55 AM 55.4 °F 53.6 °F 94% 29.68 in 4.0 mi NE 4.6 mph - N/A   Overcast
8:15 AM 55.4 °F 53.8 °F 94% 29.68 in 5.0 mi NE 8.1 mph - N/A   Overcast
8:35 AM 55.4 °F 53.8 °F 94% 29.68 in 7.0 mi NE 6.9 mph - N/A   Overcast
8:55 AM 55.4 °F 53.6 °F 94% 29.69 in 10.0 mi NE 6.9 mph - N/A   Overcast
9:15 AM 55.4 °F 53.6 °F 94% 29.69 in 7.0 mi NE 8.1 mph - N/A   Overcast
9:35 AM 55.4 °F 53.6 °F 94% 29.69 in 7.0 mi NE 5.8 mph - N/A   Overcast
9:55 AM 55.4 °F 53.4 °F 93% 29.70 in 7.0 mi NNE 6.9 mph - N/A   Overcast
9:56 AM 55.4 °F 53.4 °F 93% 29.70 in 7.0 mi NNE 6.9 mph - N/A   Overcast
10:15 AM 55.4 °F 53.6 °F 94% 29.70 in 4.0 mi NNE 5.8 mph - N/A   Overcast
10:35 AM 55.4 °F 53.6 °F 94% 29.70 in 3.0 mi NNE 6.9 mph - N/A   Overcast
10:36 AM 55.4 °F 53.6 °F 94% 29.70 in 3.0 mi NNE 6.9 mph - N/A   Overcast
10:55 AM 55.4 °F 53.2 °F 92% 29.72 in 3.0 mi North 6.9 mph - N/A   Overcast
11:15 AM 55.0 °F 53.2 °F 94% 29.74 in 4.0 mi NNW 6.9 mph - N/A   Overcast
11:35 AM 55.9 °F 54.0 °F 93% 29.74 in 7.0 mi North 8.1 mph - N/A   Overcast
11:55 AM 56.5 °F 54.1 °F 92% 29.75 in 10.0 mi North 5.8 mph - N/A   Overcast
12:15 PM 57.2 °F 54.5 °F 91% 29.75 in 10.0 mi NNE 4.6 mph - N/A   Overcast
12:35 PM 56.8 °F 54.0 °F 90% 29.75 in 10.0 mi North 4.6 mph - N/A   Overcast
12:36 PM 56.8 °F 53.8 °F 89% 29.75 in 10.0 mi North 4.6 mph - N/A   Overcast
12:55 PM 57.2 °F 54.1 °F 89% 29.75 in 10.0 mi NE 3.5 mph - N/A   Overcast
1:15 PM 57.2 °F 54.0 °F 89% 29.75 in 10.0 mi NNE 5.8 mph - N/A   Overcast
1:35 PM 57.2 °F 53.8 °F 88% 29.76 in 10.0 mi North 4.6 mph - N/A   Overcast
1:36 PM 57.2 °F 54.0 °F 89% 29.76 in 10.0 mi North 4.6 mph - N/A   Overcast
1:55 PM 57.6 °F 54.5 °F 90% 29.76 in 10.0 mi NNE 4.6 mph - N/A   Overcast
1:56 PM 57.6 °F 54.5 °F 90% 29.76 in 10.0 mi NNE 4.6 mph - N/A   Overcast
2:15 PM 57.9 °F 54.5 °F 88% 29.78 in 10.0 mi NE 3.5 mph - N/A   Overcast
2:16 PM 57.9 °F 54.5 °F 88% 29.78 in 10.0 mi NE 3.5 mph - N/A   Overcast
2:35 PM 58.3 °F 54.7 °F 88% 29.78 in 10.0 mi North 3.5 mph - N/A   Overcast
2:36 PM 58.3 °F 54.7 °F 88% 29.78 in 10.0 mi North 4.6 mph - N/A   Overcast
2:55 PM 58.5 °F 55.2 °F 89% 29.78 in 10.0 mi NE 5.8 mph - N/A   Overcast
3:15 PM 59.0 °F 55.4 °F 88% 29.79 in 10.0 mi NE 4.6 mph - N/A   Overcast
3:35 PM 58.6 °F 55.0 °F 88% 29.78 in 10.0 mi NNE 4.6 mph - N/A   Overcast
3:55 PM 58.8 °F 55.2 °F 88% 29.76 in 10.0 mi North 4.6 mph - N/A   Overcast
4:15 PM 58.6 °F 55.0 °F 88% 29.77 in 10.0 mi North 4.6 mph - N/A   Overcast
4:16 PM 58.6 °F 55.0 °F 88% 29.78 in 10.0 mi North 3.5 mph - N/A   Overcast
4:35 PM 59.0 °F 54.9 °F 86% 29.79 in 10.0 mi Calm Calm - N/A   Overcast
4:36 PM 59.0 °F 54.9 °F 86% 29.79 in 10.0 mi Calm Calm - N/A   Overcast
4:55 PM 59.0 °F 54.9 °F 86% 29.78 in 10.0 mi North 4.6 mph - N/A   Overcast
4:56 PM 59.0 °F 54.9 °F 86% 29.78 in 10.0 mi North 4.6 mph - N/A   Overcast
5:15 PM 59.2 °F 54.9 °F 86% 29.77 in 10.0 mi NNE 3.5 mph - N/A   Overcast
5:16 PM 59.2 °F 55.0 °F 86% 29.77 in 10.0 mi NNE 3.5 mph - N/A   Overcast
5:35 PM 59.2 °F 55.0 °F 86% 29.78 in 10.0 mi North 4.6 mph - N/A   Overcast
5:55 PM 59.2 °F 55.2 °F 87% 29.76 in 10.0 mi NNE 4.6 mph - N/A   Overcast
6:15 PM 59.9 °F 55.4 °F 85% 29.74 in 10.0 mi NE 8.1 mph - N/A   Overcast
6:35 PM 60.1 °F 55.4 °F 85% 29.76 in 10.0 mi East 4.6 mph - N/A   Overcast
6:55 PM 59.9 °F 55.2 °F 84% 29.77 in 10.0 mi ESE 4.6 mph - N/A   Overcast
7:15 PM 59.9 °F 55.0 °F 84% 29.77 in 10.0 mi East 4.6 mph - N/A   Overcast
7:35 PM 59.2 °F 54.9 °F 86% 29.77 in 10.0 mi East 8.1 mph - N/A   Overcast
7:55 PM 58.8 °F 54.9 °F 87% 29.78 in 10.0 mi ENE 8.1 mph - N/A   Overcast
7:56 PM 58.8 °F 54.7 °F 86% 29.77 in 10.0 mi East 8.1 mph - N/A   Overcast
8:15 PM 58.1 °F 54.5 °F 88% 29.77 in 10.0 mi East 5.8 mph - N/A   Overcast
8:16 PM 58.1 °F 54.5 °F 88% 29.77 in 10.0 mi East 6.9 mph - N/A   Overcast
8:35 PM 58.1 °F 54.5 °F 88% 29.78 in 10.0 mi East 10.4 mph - N/A   Overcast
8:55 PM 57.6 °F 54.0 °F 88% 29.78 in 10.0 mi ENE 6.9 mph - N/A   Overcast
9:15 PM 57.2 °F 53.2 °F 87% 29.79 in 10.0 mi ENE 5.8 mph - N/A   Overcast
9:35 PM 56.5 °F 53.1 °F 88% 29.80 in 10.0 mi ENE 5.8 mph - N/A   Overcast
9:55 PM 56.7 °F 53.2 °F 88% 29.81 in 10.0 mi East 4.6 mph - N/A   Overcast
10:15 PM 56.7 °F 52.9 °F 87% 29.82 in 10.0 mi ENE 5.8 mph - N/A   Overcast
10:35 PM 56.3 °F 52.7 °F 88% 29.82 in 10.0 mi East 3.5 mph - N/A   Overcast
10:36 PM 56.3 °F 52.7 °F 88% 29.82 in 10.0 mi Calm Calm - N/A   Overcast
10:55 PM 56.5 °F 52.7 °F 87% 29.82 in 10.0 mi East 4.6 mph - N/A   Overcast
10:56 PM 56.5 °F 52.7 °F 87% 29.82 in 10.0 mi East 4.6 mph - N/A   Overcast
11:15 PM 56.3 °F 52.7 °F 88% 29.82 in 10.0 mi ENE 5.8 mph - N/A   Overcast
11:16 PM 56.3 °F 52.5 °F 87% 29.82 in 10.0 mi ENE 5.8 mph - N/A   Overcast
11:35 PM 56.3 °F 52.2 °F 86% 29.81 in 10.0 mi ENE 5.8 mph - N/A   Overcast
11:55 PM 55.9 °F 52.2 °F 87% 29.81 in 10.0 mi Calm Calm - N/A   Overcast
11:56 PM 55.9 °F 52.2 °F 87% 29.81 in 10.0 mi Calm Calm - N/A   Overcast